Flag for Albania Weather past 2 weeks in Tirana, Albania

Now
72 °F

Scattered clouds.


Feels Like: 77 °F
Forecast: 54 / 69 °F
Wind: 14 mph from Southwest

Location: Tirana Airport

Current Time: Apr 28, 2015 at 2:16:43 PM

Latest Report: Apr 28, 2015 at 1:50 PM


Visibility: N/A

Pressure: 29.77 "Hg

Humidity: 47%

Dew point: 50 °F

Location of TiranaLocation

Historic Weather in Tirana — Graph

°F

Tirana temperature yesterday

Maximum temperature yesterday: 72 °F (at 10:20 AM)
Minimum temperature yesterday: 46 °F (at 4:50 AM)
Average temperature yesterday: 61 °F

Past Weeks' High & Low Weather Summary

 TemperatureHumidityPressure
High73 °F (Apr 15, 2:50 PM)94% (Apr 14, 2:20 AM)30.27 "Hg (Apr 14, 2:20 AM)
Low41 °F (Apr 21, 5:20 AM)19% (Apr 15, 2:20 PM)29.74 "Hg (Apr 28, 3:50 AM)
Average59 °F60%30.06 "Hg
* Reported Apr 13 1:20 PM — Apr 28 1:20 PM, Tirana, Weather by CustomWeather, © 2015

Note: Actual official high and low records may vary slightly from our data, if they occured in-between our weather recording intervals... More about our weather records

Advertising

Tirana weather history for previous 24 hours

 ConditionsComfort  
Time TempWeatherWind HumidityBarometerVisibility
1:20 PM
Tue, Apr 28
70 °FScattered clouds.14 mph50%29.77 "HgN/A
12:50 PM68 °FBroken clouds.10 mph53%29.77 "HgN/A
12:20 PM66 °FThundershowers. Broken clouds.9 mph68%29.77 "HgN/A
11:50 AM64 °FThunderstorms. Broken clouds.6 mph64%29.74 "HgN/A
11:20 AM70 °FBroken clouds.10 mph50%29.74 "HgN/A
10:50 AM68 °FPartly sunny.7 mph49%29.77 "HgN/A
10:20 AM66 °FPartly sunny.2 mph60%29.77 "HgN/A
9:50 AM66 °FPartly sunny.5 mph56%29.77 "HgN/A
9:20 AM66 °FPartly sunny.3 mph56%29.77 "HgN/A
8:50 AM64 °FPartly sunny.2 mph56%29.77 "HgN/A
8:20 AM63 °FPartly sunny.No wind59%29.77 "HgN/A
7:50 AM61 °FPartly sunny.3 mph63%29.77 "HgN/A
7:20 AM57 °FScattered clouds.5 mph77%29.77 "HgN/A
6:50 AM55 °FPartly sunny.3 mph82%29.74 "HgN/A
6:20 AM55 °FPassing clouds.No wind77%29.74 "HgN/A
5:20 AM57 °FPassing clouds.3 mph72%29.74 "HgN/A
4:50 AM57 °FPassing clouds.5 mph72%29.74 "HgN/A
4:20 AM57 °FPassing clouds.5 mph72%29.74 "HgN/A
3:50 AM57 °FPartly cloudy.3 mph72%29.74 "HgN/A
3:20 AM57 °FPartly cloudy.3 mph72%29.77 "HgN/A
2:50 AM57 °FPartly cloudy.7 mph72%29.80 "HgN/A
2:20 AM59 °FPartly cloudy.6 mph63%29.80 "HgN/A
1:50 AM57 °FPartly cloudy.6 mph72%29.80 "HgN/A
1:20 AM57 °FPartly cloudy.2 mph72%29.80 "HgN/A
12:50 AM57 °FMostly cloudy.6 mph72%29.83 "HgN/A
12:20 AM59 °FPassing clouds.2 mph68%29.86 "HgN/A
11:20 PM
Mon, Apr 27
59 °FPassing clouds.2 mph63%29.83 "HgN/A
10:50 PM59 °FPassing clouds.5 mph63%29.83 "HgN/A
10:20 PM61 °FPartly cloudy.3 mph52%29.86 "HgN/A
9:50 PM61 °FPassing clouds.5 mph55%29.83 "HgN/A
9:20 PM61 °FPassing clouds.2 mph59%29.83 "HgN/A
8:50 PM61 °FPartly cloudy.5 mph59%29.86 "HgN/A
8:20 PM63 °FBroken clouds.3 mph52%29.83 "HgN/A
7:50 PM63 °FBroken clouds.No wind49%29.83 "HgN/A
7:20 PM63 °FBroken clouds.3 mph49%29.83 "HgN/A
6:50 PM64 °FBroken clouds.6 mph46%29.86 "HgN/A
6:20 PM64 °FBroken clouds.7 mph46%29.86 "HgN/A
5:50 PM66 °FBroken clouds.8 mph43%29.86 "HgN/A
5:20 PM68 °FBroken clouds.9 mph46%29.89 "HgN/A
4:50 PM70 °FBroken clouds.9 mph43%29.89 "HgN/A
4:20 PM68 °FBroken clouds.6 mph43%29.89 "HgN/A
3:50 PM70 °FBroken clouds.5 mph40%29.89 "HgN/A
3:20 PM70 °FBroken clouds.7 mph46%29.92 "HgN/A
2:50 PM70 °FBroken clouds.3 mph43%29.95 "HgN/A
2:20 PM68 °FBroken clouds.3 mph46%29.95 "HgN/A
Weather by CustomWeather, © 2015

See weather overviewHow to use our weather pages